This demonstration page uses our WeatherBlox Daily Observations layout. Learn more.

Left ArrowRight Arrow

Hourly Observations for July 13, 2021

Temp ( °F °C ) Dew Point ( °F °C ) Humidity (%) Winds ( mph kmh ) Pressure ( in mb ) Visibility ( mi km ) Precip ( " mm )
12:15 am 00:15 Clear 65 18.2 60 15.7 85 85 SSE 7 11 30.01 1016 10 16 N/A
12:35 am 00:35 Clear 66 19 60 15.8 82 82 SE 7 11 30.00 1016 10 16 N/A
12:55 am 00:55 Clear 64 17.8 60 15.5 86 86 SSE 5 7 30.01 1016 10 16 N/A
1:15 am 01:15 Clear 64 17.7 59 15.2 85 85 SSE 7 11 30.01 1016 10 16 N/A
1:35 am 01:35 Clear 64 18 59 15 83 83 SSE 8 13 30.01 1016 10 16 N/A
1:55 am 01:55 Clear 64 17.6 58 14.7 83 83 SSE 7 11 30.00 1016 10 16 N/A
2:15 am 02:15 Clear 64 17.8 58 14.5 81 81 SSE 6 9 30.00 1016 10 16 N/A
2:35 am 02:35 Clear 64 18 58 14.3 79 79 SSE 6 9 30.00 1016 10 16 N/A
2:55 am 02:55 Clear 65 18.1 57 14.1 78 78 SSE 5 7 30.00 1016 10 16 N/A
3:15 am 03:15 Clear 62 16.9 57 13.8 82 82 N N/A 30.01 1016 10 16 N/A
3:35 am 03:35 Clear 60 15.4 56 13.6 89 89 ENE 3 6 30.02 1017 10 16 N/A
3:55 am 03:55 Clear 59 14.9 56 13.6 92 92 E 3 6 30.03 1017 10 16 N/A
4:15 am 04:15 Clear 58 14.7 57 13.7 94 94 E 7 11 30.02 1017 10 16 N/A
4:35 am 04:35 Clear 59 15 56 13.6 91 91 N N/A 30.02 1016 10 16 N/A
4:55 am 04:55 Clear 60 15.7 57 13.9 89 89 SE 3 6 30.00 1016 10 16 N/A
5:15 am 05:15 Clear 59 15 56 13.5 91 91 SSE 5 7 30.01 1016 10 16 N/A
5:35 am 05:35 Clear 59 14.8 56 13.5 92 92 N N/A 30.01 1016 10 16 N/A
5:55 am 05:55 Clear 58 14.2 55 12.8 91 91 N N/A 30.02 1017 10 16 N/A
6:15 am 06:15 Clear 57 13.8 55 12.9 94 94 ENE 3 6 30.03 1017 7 11 N/A
6:35 am 06:35 Sunny 57 14.1 56 13.2 94 94 N N/A 30.02 1017 7 11 N/A
6:55 am 06:55 Sunny 57 14.1 56 13.3 95 95 N N/A 30.02 1017 7 11 N/A
7:15 am 07:15 Sunny 59 14.8 57 13.9 94 94 E 3 6 30.02 1017 7 11 N/A
7:35 am 07:35 Sunny 61 16.1 59 14.9 93 93 N N/A 30.02 1016 10 16 N/A
7:55 am 07:55 Sunny 63 17.1 60 15.6 91 91 N N/A 30.01 1016 7 11 N/A
8:15 am 08:15 Sunny 64 17.7 60 15.6 88 88 N N/A 30.00 1016 10 16 N/A
8:35 am 08:35 Sunny 66 18.7 61 16.3 86 86 N N/A 30.00 1016 10 16 N/A
8:55 am 08:55 Sunny 66 18.9 62 16.6 87 87 N N/A 30.02 1017 10 16 N/A
9:15 am 09:15 Sunny 67 19.2 62 16.5 84 84 NNE 3 6 30.02 1017 10 16 N/A
9:35 am 09:35 Sunny 69 20.6 61 16.3 76 76 NNE 3 6 30.01 1016 10 16 N/A
9:55 am 09:55 Sunny 71 21.6 62 16.7 74 74 N 3 6 30.00 1016 10 16 N/A
10:15 am 10:15 Sunny 71 21.8 63 17.2 75 75 N N/A 30.00 1016 10 16 N/A
10:35 am 10:35 Sunny 73 23 63 17.3 70 70 NE 6 9 30.00 1016 10 16 N/A
10:55 am 10:55 Sunny 74 23.6 62 16.7 65 65 NNE 5 7 29.99 1016 10 16 N/A
11:15 am 11:15 Sunny 76 24.4 63 17.1 64 64 NNE 3 6 29.98 1015 10 16 N/A
11:35 am 11:35 Sunny 78 25.3 63 17 60 60 NE 5 7 29.97 1015 10 16 N/A
11:55 am 11:55 Sunny 79 26.1 64 17.9 61 61 NE 5 7 29.97 1015 10 16 N/A
12:15 pm 12:15 Sunny 81 27.3 64 17.8 56 56 NE 9 15 29.94 1014 10 16 N/A
12:35 pm 12:35 Sunny 83 28.3 63 17.3 51 51 ENE 6 9 29.94 1014 10 16 N/A
12:55 pm 12:55 Sunny 83 28.3 64 17.8 53 53 ENE 6 9 29.94 1014 10 16 N/A
1:15 pm 13:15 Sunny 82 27.9 64 17.8 54 54 ENE 9 15 29.96 1014 10 16 N/A
1:35 pm 13:35 Sunny 82 27.6 66 18.8 59 59 NE 8 13 29.96 1014 10 16 N/A
1:55 pm 13:55 Sunny 80 26.4 65 18.1 60 60 NE 9 15 29.97 1015 10 16 N/A
2:15 pm 14:15 Sunny 80 26.5 65 18.2 60 60 ENE 10 17 29.96 1014 10 16 N/A
2:35 pm 14:35 Sunny 81 27 65 18.2 59 59 E 12 19 29.94 1014 10 16 N/A
2:55 pm 14:55 Sunny 81 27 64 17.7 57 57 E 10 17 29.95 1014 10 16 N/A
3:15 pm 15:15 Sunny 81 27 63 17.4 56 56 E 14 22 29.93 1014 10 16 N/A
3:35 pm 15:35 Sunny 80 26.8 64 17.9 58 58 ESE 14 22 29.91 1013 10 16 N/A
3:55 pm 15:55 Sunny 82 27.9 66 18.8 58 58 SE 13 20 29.91 1013 10 16 N/A
4:15 pm 16:15 Sunny 82 27.8 66 19 59 59 SE 12 19 29.91 1013 10 16 N/A
4:35 pm 16:35 Sunny 83 28.5 67 19.5 58 58 SE 12 19 29.89 1012 10 16 N/A
4:55 pm 16:55 Sunny 82 27.9 67 19.7 61 61 ESE 12 19 29.89 1012 10 16 N/A
5:15 pm 17:15 Sunny 83 28.1 69 20.8 65 65 SE 13 20 29.87 1012 10 16 N/A
5:35 pm 17:35 Sunny 83 28.6 70 21.3 65 65 SE 13 20 29.87 1012 10 16 N/A
5:55 pm 17:55 Sunny 84 28.7 71 21.5 65 65 SE 10 17 29.87 1011 10 16 N/A
6:15 pm 18:15 Sunny 83 28.1 71 21.6 68 68 E 10 17 29.87 1012 10 16 N/A
6:35 pm 18:35 Sunny 82 27.8 71 21.8 70 70 E 10 17 29.87 1011 10 16 N/A
6:55 pm 18:55 Sunny 82 27.6 71 21.8 71 71 E 12 19 29.85 1011 10 16 N/A
7:15 pm 19:15 Sunny 82 27.5 72 22 72 72 E 13 20 29.85 1011 10 16 N/A
7:35 pm 19:35 Sunny 81 27 71 21.9 74 74 E 9 15 29.85 1011 10 16 N/A
7:55 pm 19:55 Sunny 80 26.4 72 22.1 77 77 E 8 13 29.87 1011 10 16 N/A
8:15 pm 20:15 Sunny 80 26.4 71 21.7 75 75 E 9 15 29.87 1011 10 16 N/A
8:35 pm 20:35 Sunny 78 25.3 72 22 82 82 E 9 15 29.87 1011 10 16 N/A
8:55 pm 20:55 Sunny 77 24.8 72 22 84 84 E 10 17 29.88 1012 10 16 N/A
9:15 pm 21:15 Clear 76 24.6 71 21.8 84 84 E 12 19 29.88 1012 10 16 N/A
9:35 pm 21:35 Clear 76 24.2 71 21.7 86 86 ENE 10 17 29.88 1012 10 16 N/A
9:55 pm 21:55 Clear 75 24 72 22 89 89 E 10 17 29.88 1012 10 16 N/A
10:15 pm 22:15 Clear 75 24 72 22 89 89 E 13 20 29.88 1012 10 16 N/A
10:35 pm 22:35 Clear 75 23.8 71 21.9 89 89 E 13 20 29.88 1012 10 16 N/A
10:55 pm 22:55 Clear 74 23.6 71 21.5 88 88 E 10 17 29.88 1012 10 16 N/A
11:15 pm 23:15 Clear 74 23.6 70 21.3 87 87 ESE 10 17 29.87 1012 10 16 N/A
11:35 pm 23:35 Clear 74 23.5 71 21.4 88 88 E 12 19 29.86 1011 10 16 N/A
11:55 pm 23:55 Clear with Nearby Thunderstorms 74 23.4 70 21.2 88 88 ESE 14 22 29.85 1011 10 16 N/A

Powered by AerisWeather